[[{"header":{"parameterUnit":"m.s-1","parameterCategory":1,"la1":30.2991,"la2":30.254,"lo1":-89.0895,"lo2":-89.0444,"dx":0.0017,"dy":0.0017,"nx":28,"ny":28,"refTime":"2022-12-30T15:00:00:Z","depth":0,"parameterNumber":2,"parameterNumberName":"U-component_of_WINDS"},"data":[0,0,0,0,0,0,0,0,0,0,0,0,0,0,0,0,0,0,0,0,0,0,0,0,0,0,0,0,0,0,0,0,0,0,0,0,0,0,0,0,0,0,0,0,0,0,0,0,0,0,0,0,0,0,0,0,0,0,-6.137,-6.1373,0,-6.1588,-6.159,-6.1592,-6.1629,-6.1628,-6.1626,-6.1624,-6.1847,-6.1854,-6.1862,0,0,0,0,0,0,0,0,0,0,0,0,0,-6.0988,-6.0995,-6.137,-6.1373,-6.1376,-6.1587,-6.159,-6.1593,-6.163,-6.1627,-6.1625,-6.1623,-6.1844,-6.1853,-6.1862,0,0,0,0,0,0,0,0,0,0,0,0,0,-6.1174,-6.0997,-6.137,-6.1419,-6.1426,-6.1587,-6.159,-6.1594,-6.163,-6.1627,-6.1625,-6.1622,-6.1841,-6.1852,-6.1863,-6.199,0,0,-6.1899,-6.1903,0,0,0,0,0,0,0,0,-6.1164,-6.1188,-6.1409,-6.1416,-6.1424,-6.1579,-6.1537,-6.1727,-6.1631,-6.1553,-6.1624,-6.1621,-6.176,-6.1778,-6.1824,-6.2,-6.201,-6.19,-6.1906,-6.1911,-6.1915,0,0,0,0,0,0,0,-6.1151,-6.1179,-6.1456,-6.1412,-6.1421,-6.1431,-6.1455,-6.1573,-6.1669,-6.1559,-6.1562,-6.1588,-6.1763,-6.1813,-6.183,-6.2013,-6.1899,-6.1909,-6.1916,-6.1921,-6.2304,-6.2307,0,0,0,0,0,0,-6.1129,-6.1168,-6.1449,-6.1463,-6.1284,-6.144,-6.1466,-6.1532,-6.1668,-6.1686,-6.159,-6.1589,-6.1795,-6.1816,-6.1838,-6.1994,-6.1911,-6.1922,-6.1929,-6.2301,-6.2305,-6.2308,0,0,0,0,0,0,-6.1121,-6.1154,-6.144,-6.1317,-6.1354,-6.145,-6.1523,-6.1537,-6.1588,-6.1691,-6.1708,-6.1623,-6.1794,-6.1822,-6.1952,-6.2003,-6.1927,-6.1938,-6.2297,-6.2302,-6.2307,-6.2308,0,0,0,0,0,0,-6.1109,-6.115,-6.1199,-6.1317,-6.136,-6.155,-6.1526,-6.1544,-6.1607,-6.1608,-6.1727,-6.1744,-6.1794,-6.1935,-6.1963,-6.2017,-6.1947,-6.2293,-6.2299,-6.2305,-6.2304,-6.2313,-6.232,0,0,0,0,0,-6.1096,-6.1191,-6.1201,-6.1235,-6.1423,-6.1553,-6.1578,-6.1633,-6.1611,-6.1661,-6.1728,-6.174,-6.1993,-6.1948,-6.198,-6.2038,-6.229,-6.2297,-6.2305,-6.23,-6.2311,-6.232,0,0,0,0,0,0,-6.1075,-6.1207,-6.122,-6.1356,-6.1443,-6.1559,-6.1623,-6.1642,-6.1737,-6.1733,-6.1798,-6.1825,-6.1951,-6.2008,-6.1955,-6.2168,-6.214,-6.2154,-6.2125,-6.2136,-6.2144,-6.2127,-6.1956,0,0,0,0,0,-6.1087,-6.1181,-6.1291,-6.1401,-6.1444,-6.1526,-6.1585,-6.162,-6.1713,-6.175,-6.1826,-6.1916,-6.2015,-6.2079,-6.2177,-6.2314,-6.234,-6.237,-6.2378,-6.2384,-6.2394,-6.2471,-6.2485,-6.2333,-6.2333,-6.2333,0,0,-6.1111,-6.1195,-6.125,-6.1399,-6.147,-6.1567,-6.1557,-6.1659,-6.1732,-6.1766,-6.1892,-6.1952,-6.2056,-6.219,-6.2253,-6.2242,-6.2443,-6.2393,-6.2397,-6.2405,-6.248,-6.2494,-6.2507,-6.2338,-6.2337,-6.2336,0,0,-6.1204,-6.1277,-6.1376,-6.1448,-6.1557,-6.1612,-6.1635,-6.175,-6.179,-6.1919,-6.1946,-6.2034,-6.2204,-6.2278,-6.2337,-6.2461,-6.2476,-6.2491,-6.2531,-6.2605,-6.2617,-6.2628,-6.2671,-6.2686,-6.2502,-6.2502,-6.2502,0,-6.1219,-6.1366,-6.1424,-6.1526,-6.1591,-6.1627,-6.1728,-6.1796,-6.193,-6.1974,-6.196,-6.2175,-6.2248,-6.24,-6.243,-6.2477,-6.2506,-6.2476,-6.2611,-6.2622,-6.2633,-6.2675,-6.2691,-6.2503,-6.2503,-6.2503,-6.2503,0,-6.138,-6.1481,-6.1549,-6.1678,-6.1751,-6.1852,-6.1926,-6.1993,-6.2022,-6.2078,-6.2209,-6.2299,-6.2415,-6.2454,-6.2484,-6.261,-6.26,-6.2598,-6.257,-6.2648,-6.2688,-6.2705,-6.2504,-6.2504,-6.2504,-6.2503,0,0,-6.1463,-6.1625,-6.1649,-6.1708,-6.1832,-6.1912,-6.2015,-6.2129,-6.2184,-6.2278,-6.2365,-6.251,-6.2509,-6.2576,-6.2615,-6.268,-6.2771,-6.2671,-6.2674,-6.2685,-6.2915,-6.2915,-6.2932,-6.2783,-6.2787,-6.2789,-6.2906,0,-6.1569,-6.1753,-6.181,-6.1964,-6.2059,-6.2096,-6.2186,-6.2272,-6.2328,-6.2416,-6.2479,-6.2579,-6.2571,-6.2612,-6.2679,-6.2746,-6.2818,-6.2739,-6.2865,-6.2869,-6.2835,-6.2953,-6.2953,-6.3058,-6.2922,-6.2925,-6.2927,0,-6.1717,-6.1812,-6.1976,-6.2089,-6.2131,-6.221,-6.2319,-6.2404,-6.2503,-6.2539,-6.2616,-6.265,-6.2759,-6.2728,-6.288,-6.2824,-6.288,-6.2921,-6.2927,-6.2939,-6.29,-6.2967,-6.3094,-6.3108,-6.2953,-6.2951,-6.2949,0,-6.1759,-6.1929,-6.2049,-6.2099,-6.2234,-6.2289,-6.2348,-6.2444,-6.2509,-6.2606,-6.2648,-6.2756,-6.2815,-6.2898,-6.296,-6.2932,-6.3107,-6.308,-6.3139,-6.3137,-6.3172,-6.3168,-6.3307,-6.3211,-6.3211,-6.3211,-6.321,0,-6.187,-6.1968,-6.2069,-6.2143,-6.2255,-6.232,-6.2429,-6.249,-6.2575,-6.2662,-6.2701,-6.2781,-6.286,-6.2951,-6.3001,-6.3119,-6.3146,-6.3178,-6.3189,-6.3173,-6.3168,-6.3208,-6.3201,-6.3215,-6.3214,-6.3213,-6.3212,0,-6.1934,-6.2006,-6.2139,-6.2257,-6.2289,-6.2366,-6.2466,-6.254,-6.2598,-6.2707,-6.2736,-6.2828,-6.2937,-6.3009,-6.3148,-6.3182,-6.331,-6.3321,-6.3276,-6.3281,-6.3335,-6.3328,-6.3503,-6.3529,-6.3417,-6.3418,-6.3419,0,-6.1999,-6.2076,-6.2202,-6.2262,-6.2322,-6.2419,-6.2486,-6.2555,-6.2623,-6.2742,-6.2801,-6.2913,-6.3006,-6.3179,-6.3258,-6.3365,-6.3377,-6.3431,-6.3393,-6.3375,-6.3376,-6.337,-6.3378,-6.3436,-6.3437,-6.3438,-6.3438,0,-6.2106,-6.2138,-6.2233,-6.2341,-6.242,-6.2509,-6.2597,-6.2645,-6.2729,-6.2804,-6.2916,-6.2988,-6.3131,-6.3241,-6.3356,-6.3417,-6.3442,-6.345,-6.3469,-6.3452,-6.3422,-6.3437,-6.329,-6.3445,-6.3445,-6.3444,-6.3444,-6.3443,-6.2171,-6.2241,-6.2341,-6.2446,-6.252,-6.2602,-6.2677,-6.2745,-6.284,-6.2961,-6.2997,-6.3114,-6.3212,-6.3369,-6.3433,-6.3525,-6.3519,-6.3547,-6.3554,-6.3559,-6.3558,-6.3409,-6.3547,-6.3547,-6.3547,-6.3547,-6.3547,0,-6.2279,-6.2345,-6.2441,-6.2564,-6.2647,-6.2665,-6.2764,-6.2832,-6.2934,-6.3024,-6.3116,-6.3245,-6.3353,-6.3442,-6.3553,-6.361,-6.3624,-6.3637,-6.3632,-6.3646,-6.3558,-6.353,-6.3624,-6.3624,-6.3624,-6.3624,-6.3624,-6.3624,-6.2344,-6.2463,-6.2507,-6.2664,-6.2731,-6.2845,-6.29,-6.2977,-6.3049,-6.3192,-6.3282,-6.3339,-6.3429,-6.3548,-6.3648,-6.3672,-6.371,-6.372,-6.3745,-6.3661,-6.3652,-6.3644,-6.3617,-6.3728,-6.3728,-6.3825,-6.3826,-6.3827]},{"header":{"parameterUnit":"m.s-1","parameterCategory":1,"la1":30.2991,"la2":30.254,"lo1":-89.0895,"lo2":-89.0444,"dx":0.0017,"dy":0.0017,"nx":28,"ny":28,"refTime":"2022-12-30T15:00:00:Z","depth":0,"parameterNumber":3,"parameterNumberName":"V-component_of_WINDS"},"data":[0,0,0,0,0,0,0,0,0,0,0,0,0,0,0,0,0,0,0,0,0,0,0,0,0,0,0,0,0,0,0,0,0,0,0,0,0,0,0,0,0,0,0,0,0,0,0,0,0,0,0,0,0,0,0,0,0,0,3.2877,3.2877,0,3.2895,3.2895,3.2896,3.2886,3.2885,3.2885,3.2884,3.29,3.2901,3.2902,0,0,0,0,0,0,0,0,0,0,0,0,0,3.2833,3.2833,3.2877,3.2877,3.2877,3.2895,3.2895,3.2896,3.2886,3.2885,3.2885,3.2884,3.29,3.2901,3.2902,0,0,0,0,0,0,0,0,0,0,0,0,0,3.2851,3.2834,3.2877,3.2875,3.2875,3.2895,3.2895,3.2896,3.2886,3.2885,3.2885,3.2884,3.29,3.2901,3.2902,3.2925,0,0,3.2906,3.2907,0,0,0,0,0,0,0,0,3.285,3.2853,3.2875,3.2875,3.2875,3.2888,3.2886,3.2905,3.2886,3.2882,3.2884,3.2883,3.2896,3.2898,3.2903,3.2926,3.2926,3.2906,3.2907,3.2908,3.2908,0,0,0,0,0,0,0,3.2849,3.2852,3.2884,3.2875,3.2875,3.2873,3.2874,3.2889,3.2893,3.2882,3.2881,3.2884,3.2896,3.2902,3.2903,3.2927,3.2906,3.2908,3.2908,3.2909,3.2972,3.2973,0,0,0,0,0,0,3.2848,3.2851,3.2883,3.2884,3.2861,3.2874,3.2876,3.2884,3.2893,3.2893,3.2884,3.2883,3.29,3.2902,3.2904,3.2934,3.2908,3.2909,3.291,3.2971,3.2973,3.2974,0,0,0,0,0,0,3.2847,3.2851,3.2883,3.2868,3.2872,3.2875,3.2885,3.2885,3.289,3.2895,3.2895,3.2889,3.2899,3.2902,3.2921,3.2934,3.291,3.2911,3.297,3.2972,3.2973,3.2992,0,0,0,0,0,0,3.2846,3.2851,3.2859,3.2868,3.2872,3.29,3.2885,3.2886,3.2893,3.2892,3.2899,3.29,3.2899,3.2919,3.2922,3.2935,3.2912,3.2969,3.2971,3.2973,3.299,3.2993,3.2996,0,0,0,0,0,3.2844,3.2862,3.286,3.2864,3.2883,3.29,3.2903,3.2902,3.2894,3.2903,3.2906,3.29,3.2932,3.2921,3.2924,3.2938,3.2968,3.2971,3.2973,3.2988,3.2993,3.2996,0,0,0,0,0,0,3.2853,3.2863,3.2861,3.2882,3.2891,3.2899,3.291,3.2906,3.2916,3.2915,3.2913,3.2915,3.2935,3.2938,3.2926,3.2962,3.2949,3.2952,3.296,3.2964,3.2967,3.2966,3.2913,0,0,0,0,0,3.2858,3.2872,3.2879,3.2897,3.2902,3.2905,3.2913,3.2912,3.292,3.2923,3.2928,3.2936,3.2948,3.2956,3.2967,3.299,3.2993,3.3001,3.3005,3.3007,3.301,3.3026,3.303,3.298,3.298,3.298,0,0,3.2867,3.2875,3.2883,3.29,3.2906,3.2921,3.2908,3.2923,3.2934,3.2925,3.2945,3.2948,3.2957,3.2979,3.2989,3.2982,3.3025,3.301,3.3012,3.3013,3.3028,3.3033,3.3037,3.2982,3.2981,3.2981,0,0,3.2892,3.2898,3.2916,3.2924,3.2935,3.2937,3.2941,3.2951,3.2953,3.2973,3.2968,3.298,3.3,3.3008,3.3014,3.3045,3.3041,3.3049,3.3066,3.3082,3.3086,3.3089,3.3103,3.3107,3.3051,3.3051,3.3051,0,3.2902,3.2925,3.2925,3.2942,3.295,3.2945,3.2963,3.297,3.2983,3.2989,3.2982,3.301,3.3015,3.304,3.3048,3.3052,3.3059,3.3048,3.3085,3.3089,3.3092,3.3105,3.311,3.3052,3.3052,3.3052,3.3052,0,3.2938,3.2953,3.2966,3.2982,3.2991,3.3008,3.3012,3.3022,3.3021,3.3024,3.3045,3.3052,3.3066,3.3071,3.3069,3.3097,3.3093,3.3085,3.3072,3.3098,3.311,3.3115,3.3054,3.3054,3.3053,3.3053,0,0,3.2967,3.2986,3.2991,3.2999,3.3012,3.3024,3.3042,3.3057,3.3067,3.3076,3.3092,3.3111,3.3105,3.3113,3.3111,3.3124,3.3153,3.3116,3.3116,3.3124,3.3187,3.3194,3.32,3.3149,3.315,3.3151,3.3187,0,3.2995,3.3028,3.303,3.3059,3.3075,3.3072,3.3088,3.3098,3.3102,3.3116,3.312,3.3134,3.3124,3.3129,3.3142,3.3146,3.3165,3.3143,3.3165,3.3165,3.3165,3.3206,3.3213,3.3247,3.3191,3.3192,3.3193,0,3.3031,3.3046,3.3077,3.3092,3.3098,3.3112,3.3128,3.3141,3.3153,3.3155,3.3166,3.3164,3.3182,3.3168,3.3195,3.3181,3.3189,3.3193,3.3194,3.3198,3.3182,3.3212,3.3257,3.3263,3.32,3.3199,3.3199,0,3.3053,3.3079,3.3103,3.311,3.3126,3.3137,3.3144,3.3156,3.3166,3.3179,3.3186,3.3201,3.321,3.3221,3.3224,3.3213,3.3252,3.3237,3.3255,3.3256,3.3265,3.3264,3.3314,3.3267,3.3267,3.3267,3.3267,0,3.3085,3.3105,3.3114,3.3128,3.3151,3.3154,3.3177,3.3183,3.3194,3.321,3.3207,3.3222,3.3223,3.3239,3.3241,3.3265,3.3267,3.3271,3.3271,3.3272,3.3272,3.3279,3.3278,3.3268,3.3268,3.3268,3.3267,0,3.3113,3.3119,3.3145,3.316,3.3164,3.3181,3.3193,3.3208,3.3213,3.3233,3.3238,3.3246,3.3264,3.3268,3.3289,3.329,3.332,3.3316,3.3316,3.3317,3.3336,3.3335,3.3393,3.3402,3.3347,3.3348,3.3348,0,3.3133,3.3149,3.3167,3.3179,3.3187,3.3205,3.3217,3.322,3.3232,3.3249,3.3262,3.3281,3.3296,3.3326,3.3333,3.335,3.3349,3.3368,3.3351,3.3353,3.3352,3.3352,3.3355,3.3372,3.3372,3.3373,3.3373,0,3.317,3.3173,3.319,3.321,3.3225,3.3239,3.3253,3.3263,3.3269,3.3283,3.3303,3.3315,3.3339,3.3358,3.3376,3.3383,3.338,3.3379,3.3384,3.3386,3.3387,3.339,3.3328,3.3377,3.3377,3.3377,3.3376,3.3376,3.3196,3.3212,3.3228,3.3248,3.326,3.3274,3.329,3.3298,3.3316,3.3337,3.3337,3.336,3.3374,3.3398,3.3407,3.3425,3.3419,3.3426,3.3428,3.3431,3.3434,3.3383,3.3427,3.3427,3.3427,3.3427,3.3427,0,3.3235,3.3246,3.3265,3.3287,3.3303,3.33,3.3317,3.3331,3.3352,3.3365,3.3382,3.3407,3.3427,3.3436,3.3456,3.3469,3.3468,3.3474,3.3474,3.3476,3.3437,3.3431,3.3475,3.3475,3.3475,3.3475,3.3475,3.3475,3.3257,3.3284,3.329,3.3324,3.3335,3.3359,3.3369,3.3383,3.3395,3.3423,3.3441,3.3448,3.3461,3.3482,3.35,3.3503,3.3511,3.3518,3.352,3.3483,3.3479,3.3474,3.3469,3.3519,3.3519,3.3558,3.3559,3.3559]}]]